This is the latest recevied weather packets stored in our database for station/object WA2TQI. If no packets are shown the sender has not sent any weather packets the latest 10 day(s).
| Time | Temp. | Humidity | Pressure | Rain* | Wind** | Luminosity | Snow |
|---|---|---|---|---|---|---|---|
| 1778006264 | 28.89° C | 47% | 1010.6 hPa | 0 mm | - | - | - |
| 1778005962 | 28.33° C | 48% | 1010.8 hPa | 0 mm | - | - | - |
| 1778005658 | 28.89° C | 46% | 1010.8 hPa | 0 mm | - | - | - |
| 1778005355 | 27.78° C | 47% | 1010.7 hPa | 0 mm | - | - | - |
| 1778005051 | 27.78° C | 48% | 1010.9 hPa | 0 mm | - | - | - |
| 1778004749 | 27.78° C | 48% | 1010.8 hPa | 0 mm | - | - | - |
| 1778004446 | 27.78° C | 49% | 1011 hPa | 0 mm | - | - | - |
| 1778004142 | 28.33° C | 47% | 1011.1 hPa | 0 mm | - | - | - |
| 1778003838 | 28.33° C | 48% | 1011.1 hPa | 0 mm | - | - | - |
| 1778003535 | 27.78° C | 48% | 1011 hPa | 0 mm | - | - | - |
| 1778003232 | 28.33° C | 47% | 1011.3 hPa | 0 mm | - | - | - |
| 1778002929 | 28.33° C | 47% | 1011.1 hPa | 0 mm | - | - | - |
| 1778002625 | 28.33° C | 48% | 1011.1 hPa | 0 mm | - | - | - |
| 1778002321 | 28.33° C | 46% | 1011.2 hPa | 0 mm | - | - | - |
| 1778002019 | 27.78° C | 49% | 1011.4 hPa | 0 mm | - | - | - |
| 1778001715 | 28.33° C | 48% | 1011.4 hPa | 0 mm | - | - | - |
| 1778001415 | 28.33° C | 48% | 1011.6 hPa | 0 mm | - | - | - |
| 1778001113 | 28.89° C | 48% | 1011.5 hPa | 0 mm | - | - | - |
| 1778000810 | 28.33° C | 49% | 1011.8 hPa | 0 mm | - | - | - |
| 1778000506 | 28.33° C | 48% | 1011.6 hPa | 0 mm | - | - | - |
| 1778000206 | 27.78° C | 48% | 1011.8 hPa | 0 mm | - | - | - |
| 1777999903 | 27.22° C | 49% | 1011.7 hPa | 0 mm | - | - | - |
| 1777999598 | 27.22° C | 50% | 1011.6 hPa | 0 mm | - | - | - |
| 1777999296 | 27.22° C | 50% | 1011.6 hPa | 0 mm | - | - | - |
| 1777998994 | 27.78° C | 50% | 1011.7 hPa | 0 mm | - | - | - |
* Rain latest hour (hover to see other rain measurements)
** Current wind speed in m/s (hover to see current wind gust speed)